Tracking 29892 objects as of 21-Nov-2024
HD Live streaming from Space Station
objects crossing your sky now

STARLINK-5421

Track STARLINK-5421 now!
10-day predictions
STARLINK-5421 is classified as:


NORAD ID: 54799
Int'l Code: 2022-175AT
Perigee: 546.0 km
Apogee: 547.7 km
Inclination: 53.2 °
Period: 95.4 minutes
Semi major axis: 6917 km
RCS: Unknown
Launch date: December 17, 2022
Source: United States (US)
Launch site: AIR FORCE EASTERN TEST RANGE (AFETR)
Your satellite tracking list
Your tracking list is empty




NASA's NSSDC Master Catalog

Two Line Element Set (TLE):
1 54799U 22175AT  24325.89392739  .00000899  00000-0  74545-4 0  9992
2 54799  53.2163 346.0313 0001256  84.3896 275.7240 15.08841478108741
Source of the keplerian elements: AFSPC